Regional Weather Roundup
Issued by NWS

Home | Current Version | Previous Version | Text Only | Print | Product List | Glossary On
Versions: 1 2 3 4 5 6 7 8 9 10 11 12 13 14 15 16 17 18 19 20 21 22 23 24 25 26 27 28 29 30 31 32 33 34 35 36 37 38 39 40 41 42 43 44 45 46 47 48 49 50
000
ASUS43 KLSX 250910
RWRMO

WEATHER SUMMARY FOR MISSOURI
NATIONAL WEATHER SERVICE SPRINGFIELD MO
400 AM CDT TUE JUL 25 2017

NOTE: "FAIR" INDICATES FEW OR NO CLOUDS BELOW 12,000 FEET WITH NO
       SIGNIFICANT WEATHER AND/OR OBSTRUCTIONS TO VISIBILITY.
       CURRENT SKY AND/OR WEATHER CONDITIONS ARE NOT AVAILABLE FOR
       CHILLICOTHE AND FARMINGTON.

MOZ001>031-035>038-043-044-053-054-251000-
...NORTHERN AND WESTERN MISSOURI...

CITY           SKY/WX    TMP DP  RH WIND       PRES   REMARKS
KANSAS CTY INT PTCLDY    73  66  78 SE9       30.04S
KANSAS C DTWN  CLEAR     75  67  76 E7        30.03S
LEE`S SUMMIT   CLEAR     73  67  81 SE8       30.05S
ST JOSEPH      CLEAR     74  68  81 S8        30.04S
CHILLICOTHE      N/A     69  68  96 VRB3      30.08R
KIRKSVILLE     CLEAR     65  64  97 E5        30.10S FOG

$$
MOZ066>068-077>081-088>096-101>105-251000-
...SOUTHWEST MISSOURI...

CITY           SKY/WX    TMP DP  RH WIND       PRES   REMARKS
SPRINGFIELD    CLEAR     73  69  87 CALM      30.04S
JOPLIN         CLEAR     74  73  97 CALM      30.03F
BRANSON          N/A     75  68  78 CALM      30.07R

$$
MOZ032>034-039>042-045>050-055>058-069>072-251000-
...CENTRAL MISSOURI...

CITY           SKY/WX    TMP DP  RH WIND       PRES   REMARKS
COLUMBIA       CLEAR     69  68  96 E6        30.06S
JEFFERSON CITY CLEAR     69  69 100 CALM      30.04S
ROLLA          CLEAR     71  68  90 E8        30.04S
SEDALIA        CLEAR     69  68  96 E3        30.06F
WHITEMAN AFB   CLEAR     69  69 100 SE3       30.04S
WARRENSBURG    CLEAR     68  64  88 CALM      30.05R
OSAGE BEACH    CLEAR     69  66  90 CALM      30.05S

$$
MOZ051-052-059>065-251000-
...EAST CENTRAL MISSOURI...

CITY           SKY/WX    TMP DP  RH WIND       PRES   REMARKS
ST LOUIS INTL  PTCLDY    74  66  76 E9        30.06S
SPIRIT OF STL  CLEAR     72  69  90 E5        30.04S
ST CHARLES     CLEAR     70  67  90 NE8       30.05F

$$
MOZ072>076-082>087-097>100-106>115-251000-
...SOUTH CENTRAL AND SOUTHEAST MISSOURI...

CITY           SKY/WX    TMP DP  RH WIND       PRES   REMARKS
CAPE GIRARDEAU TSTM      77  72  84 N13G23    30.04R
FARMINGTON     CLOUDY    74  69  85 E3        30.06R
POPLAR BLUFF   PTCLDY    78  77  96 E5        30.00R
WEST PLAINS    CLEAR     72  70  93 CALM      30.05S

$$



USA.gov is the U.S. government's official web portal to all federal, state and local government web resources and services.